STARLINK-4451, 53492

Orbit data source: Space-Track

STARLINK-4451, 53492 is a payload satellite owned by SpaceX/Seattle (US) in SSO that was launched on Fri, 12 Aug 2022 UTC via an FALCON 9 launch vehicle from the Air Force Western Test Range (AFWTR). Payload-class satellites include a variety of spacecraft equipped with specific instruments for various scientific and technological missions. These include communications satellites like Starlink; space stations such as the ISS; scientific satellites like the Hubble; Earth observation satellites from companies like Planet Labs, Umbra, and HawkEye 360; GPS; miniature CubeSats for education and research; and military/defense satellites.

Loading next visibility...
Identifier
53492, 2022-099AD
Orbit
SSO
Country
Flag of USUS
Related business
Manufacturer
SpaceX/Seattle
Mission
Operational Commercial Communications
Bus & Motor
STARLINK, Unknown motor
Mass
300 kg wet, ~275 kg dry
Launch date (UTC)
2022-08-12 (4 years ago)
Launch vehicle
FALCON 9
Launch site
Air Force Western Test Range (AFWTR)
Object type
Payload
Rocket body
Debris
Shape & HBR
Box + 1 Pan, 10.1 m
Radar Cross Section
13.562 m², Large (>1 m²)

Expand to show TLE details & history
Last TLE update: 7 hours ago

TLE from 7 hours ago
0 STARLINK-4451
1 53492U 22099AD  26145.66668981  .00116852  00000-0  44218-2 0  9997
2 53492  97.6010 266.6478 0001285  94.2135 280.6415 15.26440801  5807
Epoch: 2026-05-25T16:00Z
TLE epoch observation values (Epoch: 2026-05-25T16:00:01.999Z)
Latitude
14.67894°
Longitude
141.39606°
Altitude
488.668 km
Speed
7.622 km/s
True Right ascension
17h 38m 37s
True Declination
14° 35' 30"
Sunlit
Object was in full shadow at epoch
Visualization orbit readout
Latitude
Unknown
Longitude
Unknown
Altitude
Unknown
Speed
Unknown
Apparent Right ascension
Unknown
Apparent Declination
Unknown
Sunlit
N/A
Visualization observer readout
Local Sidereal Time
08:01:24
Azimuth
Unknown
Elevation
Unknown
Doppler factor
Unknown
Orbital elements
Apogee altitude
484.31 km
Perigee altitude
482.546 km
Semi-major axis
6,861.565 km
Eccentricity
0.00013
Inclination
97.601°
RAAN
266.6478°
Arg. of periapsis
94.2135°
True anomaly
280.62703°
Mean anomaly
280.6415°
Eccentric anomaly
280.63426°
Mean motion
3.81864 °/min
Orbital period
94.27 mins
BSTAR
0.0044218
Loading maneuver chart data...
Computing Atmospheric mass density...
Loading historical data...
Loading historical data...
Loading historical data...
Loading historical data...
Loading historical data...
Loading historical data...
Loading historical data...

Documentation

Showing up to 5 results
|